TIANWANG 1A (TW-1A)
1 40928U 15051D   19251.83396523  .00002851  00000-0  70646-4 0  9995
2 40928  97.1408 281.3134 0012258 129.0014 317.2506 15.41138768221824
LAPAN A2
1 40931U 15052B   19251.27879160  .00000763  00000-0  17085-4 0  9999
2 40931   5.9966 194.8042 0013647 232.1050 127.7806 14.76614019213349
LQSAT
1 40958U 15057A   19251.82205897 -.00000015 +00000-0 +52804-5 0  9994
2 40958 097.8924 318.7730 0017623 342.1454 017.9132 14.73087861210908
CHUBUSAT 2
1 41338U 16012B   19251.59921053 +.00000297 +00000-0 +16348-4 0  9995
2 41338 031.0041 344.2308 0013727 194.9749 165.0481 15.00175173195221
CHUBUSAT 3
1 41339U 16012C   19251.69221237  .00000326  00000-0  18513-4 0  9993
2 41339  31.0118 341.6273 0013418 203.6312 156.3709 15.00349306195238
OUFTI-1
1 41458U 16025C   19251.18679474 +.00001465 +00000-0 +77423-4 0  9993
2 41458 098.1012 342.1752 0167498 083.1968 278.8283 15.05995498184836
E-STAR-2
1 41459U 16025D   19251.75451786  .00000970  00000-0  53071-4 0  9994
2 41459  98.1002 342.3895 0168782  82.6407 279.3949 15.05620169184896
AAUSAT 4
1 41460U 16025E   19251.75929932  .00001707  00000-0  88179-4 0  9995
2 41460  98.0965 343.8426 0158614  74.6005 287.2639 15.07574527185038
NUSAT 1
1 41557U 16033B   19251.94200461 +.00000925 +00000-0 +37224-4 0  9997
2 41557 097.4164 338.9640 0014041 014.4211 345.7425 15.27353096182643
BEESAT 4
1 41619U 16040W   19251.63226362 +.00001089 +00000-0 +48818-4 0  9991
2 41619 097.3605 312.3044 0013056 095.3791 264.8936 15.23275190166331
PRATHAM
1 41783U 16059A   19251.60323620 +.00000038 +00000-0 +16580-4 0  9999
2 41783 098.0602 309.3451 0034735 125.3239 235.1219 14.63007662157520
ALSAT 1N
1 41789U 16059G   19251.72699434  .00000059  00000-0  20163-4 0  9992
2 41789  98.0638 311.6405 0029504 114.2190 246.2099 14.64259711157659
NAYIF 1
1 42017U 17008BX  19251.75074747  .00001118  00000-0  46735-4 0  9999
2 42017  97.3969 317.9783 0004864 229.7904 130.2909 15.25688780142430
MAX VALIER SAT
1 42778U 17036P   19251.64104571 +.00000690 +00000-0 +33099-4 0  9994
2 42778 097.3472 307.4734 0010767 300.5540 059.4634 15.22118624122703
